Vorticity
9 8 8 6 6 7 5 6 4 3 4 4 5 5 6 6 6 7 8 8 7 8 9 8 9 8 9 8 6 4 0 -2 -4 -5 -5 -3 -1 0 2 3 4 4 5 5 6 6 7 7 7 8 9 9 8 7 6 5 4 3 2 2 3 3 4 4 4 3 4 3 2 3 2 3 2 2 2 3 2 1 2 3 4 4 4 4 5 5 5 6 7 11 15 17 19 19 16 10 7
6 5 6 5 5 5 4 4 3 4 4 3 5 4 5 6 6 7 7 8 7 7 7 6 5 5 5 3 2 -1 -4 -5 -5 -4 -1 1 1 2 4 4 4 4 5 5 5 6 6 6 6 7 9 11 11 11 10 9 7 5 4 3 3 2 3 4 5 5 5 4 4 3 3 3 3 3 2 3 4 3 3 3 3 4 4 4 3 3 4 5 5 6 9 12 15 18 20 18 14
4 4 4 3 4 3 3 3 3 4 3 3 4 4 4 4 5 5 5 5 4 4 3 3 2 1 1 -1 -2 -2 -3 -2 -1 1 2 3 3 4 4 4 4 4 4 4 4 4 5 6 6 6 6 7 8 9 10 10 10 9 8 7 6 5 4 4 4 5 6 6 6 5 4 4 4 3 4 3 3 3 4 4 3 3 3 3 3 3 3 4 5 5 6 8 12 14 17 19 19
3 3 3 2 3 2 3 4 4 4 3 3 2 3 3 3 4 3 3 3 2 2 1 0 -0 -1 -0 -1 -1 1 1 2 3 3 4 4 5 5 4 5 4 4 4 3 4 3 4 4 4 4 4 4 5 5 6 7 8 9 10 9 9 8 7 6 6 5 5 6 7 7 5 5 5 5 4 5 4 3 4 5 5 4 4 4 3 3 3 4 4 6 6 6 8 11 14 17 19
2 2 3 2 3 4 4 5 5 4 3 3 3 3 3 2 3 2 2 2 2 2 2 1 1 1 2 2 2 3 4 4 5 5 5 5 5 5 4 5 4 4 4 3 3 3 2 2 2 2 2 2 2 2 3 3 4 5 6 7 7 8 8 7 7 6 6 6 6 6 6 5 5 5 5 5 5 4 4 5 6 5 5 5 4 3 3 3 3 4 6 6 7 8 11 15 17
2 1 2 2 3 4 4 4 5 5 4 4 4 4 3 3 3 2 3 2 3 3 2 2 2 3 3 4 4 5 5 5 6 5 5 5 4 4 4 4 4 3 3 3 2 2 2 2 2 1 1 1 1 1 2 2 2 2 2 3 4 5 6 7 7 7 8 7 7 6 6 7 6 5 5 5 4 4 5 4 5 6 6 6 5 4 4 3 3 4 5 6 6 7 8 11 15
2 1 2 2 5 7 5 6 6 6 6 6 5 5 4 4 4 3 3 3 3 3 3 4 6 6 6 6 7 6 6 6 6 5 5 4 4 3 3 3 3 3 2 2 2 2 2 2 2 2 2 2 2 2 2 2 2 2 2 3 3 3 4 5 5 6 7 7 7 7 7 6 6 6 6 5 4 4 4 5 6 5 6 6 5 5 3 3 4 5 6 6 7 7 7 8 10
2 3 4 4 7 9 8 9 9 9 9 9 9 8 8 8 8 7 7 7 7 8 9 9 9 8 7 7 6 6 5 5 5 4 4 3 3 3 2 2 3 2 2 1 1 2 2 2 2 2 3 3 3 4 4 4 4 4 3 4 4 4 4 4 5 5 5 6 6 6 7 7 7 7 7 6 4 4 4 5 6 6 7 6 5 3 3 4 4 5 7 8 8 8 8 8 8
3 4 5 7 8 8 8 9 8 9 9 9 10 9 10 10 11 11 10 10 10 8 7 6 5 4 5 4 3 3 2 2 3 3 2 3 3 2 2 3 3 3 2 3 3 3 3 3 4 4 3 3 3 4 5 5 6 6 5 5 5 5 5 5 5 5 5 5 6 6 7 7 7 6 7 6 4 5 5 5 6 7 8 6 3 1 3 4 5 7 7 9 10 10 10 10 8
3 3 5 7 7 6 7 6 6 6 6 6 6 6 6 7 7 7 5 6 5 3 4 4 1 2 3 3 2 2 1 1 1 1 2 3 3 3 3 3 4 4 4 5 5 4 5 5 6 6 6 6 6 5 5 6 7 7 7 6 6 7 6 7 6 6 6 5 6 6 7 7 7 6 7 7 5 5 5 5 7 9 8 4 3 3 5 5 6 8 9 11 11 12 12 11 10
4 4 5 6 5 5 5 4 4 4 4 4 3 3 3 3 3 3 2 3 3 1 3 3 0 1 2 3 3 3 3 3 3 3 4 4 4 4 3 3 4 4 4 4 4 4 4 5 6 6 7 7 8 8 7 7 8 8 8 7 7 7 7 7 7 7 6 6 6 6 6 7 6 6 7 7 5 5 6 5 7 9 6 3 4 5 6 7 8 9 11 12 13 13 13 12 12
3 5 5 4 5 5 5 4 4 4 3 3 4 3 2 2 2 2 2 1 2 1 1 2 1 1 1 2 2 2 3 3 3 4 4 4 3 4 3 4 4 4 4 3 4 4 4 4 5 6 6 7 7 8 8 8 9 9 9 8 8 8 8 8 7 7 6 6 6 7 6 6 6 7 7 7 6 6 6 6 8 8 4 4 4 4 5 7 9 10 12 13 14 14 14 13 13
4 5 5 5 6 5 5 5 4 4 3 3 3 3 2 2 2 2 1 -0 1 1 0 1 1 1 1 1 1 1 2 2 3 4 4 4 3 3 4 4 5 5 4 4 4 5 5 4 5 5 6 6 7 8 9 10 9 9 9 9 8 8 8 8 7 6 6 7 7 7 7 6 7 7 7 6 6 7 6 7 9 6 3 4 3 3 4 5 8 10 12 13 15 15 14 14 13
6 7 6 5 6 5 4 4 4 3 2 3 2 2 2 1 2 2 0 0 1 1 0 0 1 2 2 2 1 1 2 2 3 5 5 4 4 4 5 5 4 4 4 5 6 6 6 6 7 7 7 7 8 9 9 11 10 10 10 9 9 9 9 8 8 7 7 7 7 8 7 6 6 7 8 6 7 7 7 9 8 5 4 3 1 1 2 4 6 8 11 13 16 16 15 14 13
7 7 7 7 6 5 4 3 4 1 1 2 1 2 1 1 1 1 0 1 1 1 1 3 4 4 3 2 1 2 3 3 5 6 5 5 5 5 4 4 4 5 5 6 7 7 8 8 9 9 10 10 10 10 9 10 11 11 11 11 11 10 10 9 8 8 8 8 8 9 8 5 4 6 7 7 8 7 8 9 6 5 4 2 0 1 1 2 4 6 9 12 16 17 16 14 13
8 7 7 6 4 4 4 3 4 2 0 1 1 0 0 1 2 1 2 2 3 4 5 7 7 4 2 2 3 4 5 5 6 6 6 5 5 5 5 5 5 6 7 8 8 9 10 10 10 10 10 11 11 11 11 10 11 12 12 12 12 11 11 10 10 10 10 11 10 10 7 3 3 6 7 8 7 7 9 7 5 6 4 1 1 1 1 2 3 4 7 10 15 17 17 16 13
8 7 6 5 4 4 4 3 3 1 1 1 1 0 1 2 3 3 4 5 7 7 7 7 5 1 2 5 7 6 6 6 6 5 5 5 5 5 6 7 8 8 9 10 10 10 10 10 10 10 10 11 11 11 11 11 11 12 12 12 12 12 12 11 12 12 13 13 11 9 5 3 5 6 6 8 7 8 9 5 5 7 4 2 2 1 1 1 1 3 6 9 14 17 18 17 15
8 7 6 5 5 4 3 3 3 2 2 2 2 2 3 3 5 5 6 8 7 6 5 5 3 3 6 8 7 5 5 5 5 5 5 5 6 7 8 9 9 9 10 9 10 9 9 10 10 11 10 10 10 10 11 11 11 11 12 12 12 12 12 13 13 13 13 12 9 7 5 4 6 6 7 7 6 10 7 3 6 6 4 3 2 2 2 1 1 2 5 8 13 19 21 18 16
9 9 7 5 5 4 4 3 4 5 3 4 4 4 4 5 6 5 6 5 4 5 7 6 5 7 8 7 5 4 4 5 6 7 7 7 8 8 8 9 9 9 9 8 8 9 10 10 10 10 10 10 10 9 10 10 10 11 12 12 13 13 13 14 14 13 12 9 6 5 5 5 6 7 8 6 6 10 5 3 5 5 4 3 3 2 2 1 1 1 3 7 11 19 24 21 18
9 9 7 6 6 5 4 4 5 6 4 5 4 4 5 5 5 4 5 4 6 10 9 7 7 7 7 4 4 5 6 8 8 8 7 8 8 8 8 8 9 8 8 8 9 9 9 10 10 10 10 10 10 10 10 10 11 12 13 14 14 14 14 14 13 12 8 4 4 5 5 5 6 7 7 5 7 9 4 2 3 2 3 2 2 2 2 2 1 1 3 6 10 17 24 25 20
10 8 6 7 7 6 5 5 5 4 4 5 4 5 5 4 5 5 6 8 9 10 7 7 6 5 4 4 6 7 9 8 7 7 7 7 8 8 8 8 8 8 8 9 9 9 8 9 9 9 10 11 11 11 12 13 14 14 15 14 14 14 13 13 12 8 3 2 4 5 5 5 6 8 7 6 8 8 4 2 2 2 2 2 2 1 2 2 2 2 2 5 10 17 25 26 21
9 9 8 7 7 6 5 5 4 5 5 5 5 5 5 5 7 8 8 9 8 7 5 5 5 5 5 6 8 8 8 7 6 7 7 7 8 8 8 9 9 9 9 9 9 9 8 9 9 10 11 12 13 13 14 14 14 13 13 12 12 13 13 12 9 4 2 3 4 4 5 6 7 8 6 6 7 7 5 4 3 3 3 3 3 2 3 3 3 3 1 4 8 16 27 29 22
8 8 8 6 6 5 4 4 5 5 5 5 6 7 8 9 8 8 7 7 5 5 5 5 6 6 7 8 9 8 7 6 7 7 7 8 8 8 8 8 9 9 9 9 9 9 9 10 11 12 12 13 13 13 12 12 11 11 11 12 12 12 11 8 5 4 3 3 3 5 6 7 8 7 5 5 6 6 5 4 4 4 4 4 3 3 3 3 3 3 2 3 6 14 26 32 26
6 6 5 4 4 5 5 5 6 6 6 7 9 10 10 8 6 5 5 5 5 5 6 7 7 7 8 9 8 6 6 6 8 8 7 8 9 9 8 9 10 9 9 8 9 10 11 12 12 12 12 12 12 11 10 10 10 11 12 11 11 10 8 6 4 3 2 2 3 6 7 8 7 6 5 4 5 5 4 4 3 3 3 4 4 3 3 3 3 3 3 2 5 12 23 34 30
6 4 5 5 5 6 7 7 8 8 9 9 9 7 6 6 5 4 4 5 5 6 7 7 7 8 10 8 7 6 6 7 9 8 8 9 9 9 9 9 9 9 9 9 10 12 12 12 11 10 11 10 9 9 9 10 10 10 10 9 8 7 6 5 4 2 2 3 5 7 8 7 6 5 4 4 4 4 3 3 3 3 3 3 4 3 3 3 3 3 3 2 3 9 19 32 33
6 5 6 6 7 7 7 8 8 7 7 5 5 5 4 5 5 4 4 4 6 7 7 7 8 10 10 7 6 6 6 8 9 8 8 9 9 9 9 9 9 9 9 10 12 12 12 11 10 9 9 8 8 8 8 9 9 9 8 8 8 7 6 5 4 2 2 4 6 8 8 7 6 5 4 4 4 3 3 3 3 3 3 4 4 4 3 2 3 3 3 3 3 7 16 29 35
5 6 6 6 6 6 6 7 6 5 5 4 4 5 5 4 4 5 4 4 7 8 7 7 10 11 8 6 6 7 8 8 9 8 9 9 9 9 9 9 9 9 10 12 12 12 11 10 9 8 7 7 7 7 7 7 7 7 8 8 7 7 6 5 3 3 3 4 7 8 8 7 6 5 5 4 4 4 4 3 3 3 3 4 4 3 4 2 3 3 3 3 3 6 12 24 35
4 4 5 4 4 4 5 5 5 5 5 5 4 5 6 5 6 5 2 5 9 8 7 8 12 10 6 7 8 8 9 8 8 9 10 10 9 9 9 9 9 10 11 11 11 12 11 10 8 7 7 7 7 6 6 6 7 7 7 7 7 6 6 4 4 3 3 5 7 8 7 7 6 6 6 5 4 4 4 4 3 3 3 3 4 4 4 3 3 3 3 3 3 5 10 19 32
3 4 4 4 4 5 5 5 6 6 6 7 5 3 7 5 5 5 1 5 9 7 7 10 12 8 6 9 9 8 8 8 8 9 10 10 9 9 8 9 11 11 11 11 12 11 10 9 8 8 8 8 7 6 6 6 7 7 7 7 6 6 5 5 4 5 5 6 7 7 7 7 7 6 6 5 5 5 4 4 4 4 4 4 5 4 4 4 3 4 3 3 3 4 9 16 27
4 5 5 5 5 5 6 7 6 8 7 8 6 3 6 5 1 3 4 6 10 8 7 10 10 7 8 10 9 9 8 8 10 10 10 9 9 9 9 10 11 11 11 12 12 10 9 8 8 8 8 8 7 7 7 7 7 7 7 7 6 6 6 5 5 6 6 7 7 7 7 7 7 7 6 6 5 5 5 5 5 4 4 4 5 5 4 5 4 4 3 3 4 4 8 14 24
4 5 4 5 5 5 7 8 7 7 6 6 6 2 4 7 3 2 5 8 10 8 7 9 9 8 10 10 9 9 8 9 11 10 9 9 9 9 10 11 11 12 12 12 11 9 8 7 8 8 7 8 7 7 7 7 6 6 6 6 6 5 6 6 6 7 7 7 7 6 7 7 7 7 7 7 6 6 5 5 5 5 5 5 5 5 5 5 4 5 4 3 4 4 7 11 21
4 4 4 4 5 6 7 8 7 5 4 4 4 1 3 8 6 4 7 12 11 8 7 8 9 10 11 11 10 9 8 10 10 9 9 9 9 10 11 12 11 12 12 11 9 7 7 7 7 8 7 8 8 7 6 6 6 6 6 6 6 5 6 7 7 7 7 7 7 6 7 7 7 8 7 7 6 6 6 6 6 5 5 5 5 6 5 6 5 5 5 4 4 4 6 10 17
4 3 3 5 5 6 7 6 5 5 4 3 2 2 4 6 4 6 12 14 10 7 8 9 10 11 11 11 9 9 10 10 9 9 9 8 8 11 12 12 11 10 10 8 7 6 7 7 7 7 7 8 8 7 7 7 7 7 7 6 7 7 7 8 8 8 8 8 7 7 7 7 7 7 6 7 7 7 7 6 6 6 6 6 5 6 6 6 6 6 6 5 5 4 5 10 16
4 3 3 5 6 5 7 6 5 5 3 3 2 1 6 7 5 10 13 12 9 7 8 10 11 11 11 10 9 10 11 10 10 10 8 7 9 11 12 11 10 9 7 6 5 5 6 6 7 7 6 7 6 6 6 6 6 6 7 6 7 8 8 9 9 9 9 8 8 7 7 7 7 7 6 7 7 7 7 6 6 6 6 6 6 6 6 6 7 7 7 6 5 4 5 10 16
3 4 4 4 6 6 6 6 5 4 2 2 2 2 7 7 8 13 12 10 8 7 9 10 11 11 11 11 11 12 11 9 10 9 6 7 9 12 13 11 9 7 5 4 3 4 5 6 7 6 6 6 5 5 5 4 5 4 5 6 6 7 7 7 8 8 8 7 7 7 7 7 6 7 6 7 7 7 7 6 7 7 7 7 6 6 7 7 7 7 8 7 6 5 4 8 15
3 3 4 4 6 6 6 6 5 4 2 1 1 4 8 8 10 12 9 10 9 8 9 10 11 12 11 11 12 11 10 10 9 7 6 7 10 13 13 11 7 6 4 3 3 3 5 7 7 7 6 6 5 4 4 4 4 4 4 5 5 5 6 7 7 7 7 7 7 7 7 7 7 7 7 7 7 7 6 6 7 7 7 7 6 7 7 7 8 8 8 8 7 5 5 7 13
3 3 4 5 6 5 5 5 4 3 2 1 1 5 10 12 12 10 9 10 8 8 10 12 14 13 11 13 13 11 9 9 8 6 7 7 11 14 12 9 5 4 4 3 4 5 6 7 7 7 6 6 5 4 4 4 3 3 4 4 4 5 5 7 8 8 7 7 6 7 8 7 7 8 7 7 7 6 6 6 7 7 7 7 7 7 8 8 8 9 9 8 7 5 5 7 12
3 3 4 5 5 5 5 4 4 2 1 2 2 6 11 13 13 12 10 8 6 9 13 14 14 12 13 15 12 9 8 7 8 7 7 9 14 15 9 5 3 4 4 4 5 5 6 6 6 6 6 6 5 4 4 4 4 4 5 5 4 5 5 7 9 9 9 8 7 8 8 8 7 8 8 7 7 6 6 7 7 7 8 7 7 8 8 8 9 9 10 9 8 6 5 6 10
3 4 5 5 6 6 5 3 2 1 2 3 4 8 11 11 12 12 8 6 8 12 13 14 14 13 14 13 9 8 8 7 8 8 10 12 14 10 4 2 3 4 4 5 5 5 6 6 5 5 5 5 5 5 4 4 4 4 4 5 4 4 5 7 10 10 9 8 9 10 9 8 8 8 8 7 7 7 7 8 8 7 8 8 7 8 9 9 9 10 10 9 9 7 5 6 10
3 5 6 6 6 5 4 3 2 2 5 8 9 11 10 8 11 10 7 8 11 12 14 16 14 11 11 9 8 8 7 8 10 11 13 13 9 4 1 1 3 4 5 6 6 6 6 5 4 4 4 5 5 5 4 3 4 4 5 5 4 5 7 9 11 11 10 9 10 10 9 9 8 8 7 7 7 7 8 8 8 8 8 8 8 8 9 9 9 10 11 9 8 7 6 6 9
4 5 6 6 5 4 3 2 2 4 7 10 12 10 8 9 11 9 8 10 13 15 18 17 11 9 9 8 8 8 10 13 16 15 12 9 5 1 1 2 3 4 5 5 5 6 7 6 5 3 2 4 5 6 5 3 3 4 5 5 4 6 9 11 11 11 11 11 11 10 10 9 8 7 6 7 7 8 9 8 8 8 8 8 8 9 10 10 10 11 11 10 8 7 7 7 8
5 6 5 5 4 3 2 3 4 7 9 11 13 12 11 14 14 11 10 10 14 17 16 12 7 6 7 8 10 13 17 20 18 13 7 4 2 2 3 2 3 5 5 4 5 6 7 7 6 4 3 4 5 7 6 4 3 4 6 5 5 7 10 12 12 11 12 12 11 10 10 9 8 8 7 8 8 8 8 8 8 8 9 9 9 10 10 10 11 11 10 9 8 6 6 8 8
6 6 5 4 3 2 3 6 8 10 11 11 13 13 12 14 13 10 9 10 14 14 10 7 6 7 9 10 13 18 21 16 8 4 2 2 3 3 3 3 4 6 5 5 5 6 8 8 7 5 4 4 6 7 7 4 3 4 6 6 6 8 11 13 13 12 13 12 11 10 9 9 8 7 7 8 8 7 7 7 8 8 8 9 10 10 11 11 11 11 11 9 7 6 5 8 10
6 5 4 2 2 4 7 9 10 10 9 10 11 9 8 13 14 9 7 12 15 11 8 7 7 8 9 10 15 21 18 4 -5 -2 1 1 2 3 4 4 5 5 5 5 5 7 9 8 7 5 5 5 7 8 6 3 3 7 9 7 7 9 11 13 12 12 12 12 11 10 9 9 8 8 7 7 7 6 6 6 7 8 8 8 9 10 10 11 11 11 11 10 7 5 4 7 11
5 4 3 3 5 9 10 9 9 9 9 11 11 9 9 13 15 11 12 14 11 8 7 8 9 9 8 9 12 14 10 -0 -5 -3 -1 1 3 4 4 5 6 6 5 5 6 7 8 7 6 5 5 6 8 8 5 3 6 9 8 6 7 9 10 11 12 12 11 11 11 11 10 9 9 9 8 7 7 7 7 6 6 7 8 8 9 10 10 10 10 10 10 10 7 3 3 6 10
4 3 4 7 10 10 10 9 9 8 8 8 10 11 11 13 15 14 14 12 9 9 8 8 10 10 8 8 6 5 5 2 -2 -2 -0 2 4 4 5 6 6 5 5 5 6 6 6 5 5 5 7 8 7 5 3 5 9 8 5 5 7 8 9 10 11 13 12 11 12 12 11 10 9 9 8 7 6 7 7 7 6 6 7 8 8 9 10 10 9 9 9 8 7 3 2 4 8
4 7 9 9 9 7 6 6 6 8 9 9 12 13 12 17 20 13 8 8 9 9 8 8 10 9 7 8 6 4 4 1 -0 1 2 4 4 5 6 6 5 5 5 5 5 4 5 6 7 8 8 7 5 4 6 8 8 5 3 5 7 9 10 11 11 12 12 12 13 13 12 11 9 7 6 6 5 6 6 6 7 6 6 6 8 9 9 9 7 8 8 7 7 4 1 3 7
9 11 11 8 8 8 7 8 10 12 11 11 13 13 15 20 17 7 4 7 8 7 6 8 8 6 7 9 7 5 3 2 2 3 4 5 5 6 6 6 6 6 5 4 4 5 6 8 9 9 8 7 7 8 8 6 4 4 6 8 10 11 11 11 11 11 11 11 12 12 11 10 10 8 6 6 5 5 5 6 6 6 6 5 6 8 8 8 8 7 8 7 6 5 2 2 6
11 10 8 8 9 9 9 12 13 12 9 9 13 15 18 18 10 5 7 7 7 7 7 7 5 5 8 8 5 4 4 4 5 5 5 6 6 6 6 6 6 5 4 4 5 7 8 10 10 10 9 8 7 6 5 4 5 7 8 9 10 9 9 9 9 9 9 9 9 9 10 9 9 9 8 8 7 6 6 6 7 6 6 7 6 8 8 7 8 7 6 7 5 5 3 2 6
9 9 8 10 11 9 9 11 11 11 9 10 15 17 17 13 8 7 7 7 8 8 6 6 6 6 7 5 4 5 6 6 5 5 6 6 6 7 7 6 5 4 4 5 7 9 11 11 10 9 7 6 5 5 5 5 7 8 9 9 7 6 6 5 5 5 5 6 7 7 8 9 9 9 10 9 8 8 8 8 8 7 7 8 8 8 9 7 7 6 6 7 6 5 3 2 6
10 10 9 11 12 10 11 12 12 13 11 10 14 16 13 10 8 7 7 8 8 5 5 6 6 5 5 5 6 6 6 6 6 6 7 7 7 7 6 5 4 5 7 9 10 10 9 8 7 6 5 4 5 7 8 8 7 6 4 2 2 3 4 5 7 8 7 7 6 5 5 5 5 6 6 8 8 8 8 7 7 8 7 9 9 9 9 8 7 6 6 7 6 5 4 2 5
9 10 10 12 12 11 12 12 11 11 9 10 13 13 12 9 8 8 7 6 5 5 6 7 6 5 5 6 6 6 6 6 6 7 7 7 6 6 6 6 8 9 10 9 9 8 7 6 5 5 6 8 8 6 5 4 3 4 7 11 16 20 22 24 25 24 23 21 19 17 15 12 10 8 4 3 3 3 4 5 6 7 6 6 8 8 8 8 6 6 6 7 6 5 5 3 4
11 14 15 14 13 12 11 10 9 10 9 10 11 10 11 10 9 8 7 6 7 7 7 7 7 7 6 6 6 6 7 7 8 8 7 7 6 7 9 10 10 9 8 8 7 6 5 6 7 8 7 5 3 2 4 10 18 25 30 32 32 30 27 25 23 22 21 21 22 22 23 23 22 22 20 16 13 9 5 3 3 4 5 5 6 7 8 8 6 7 7 7 6 5 5 4 4
14 16 15 12 11 10 9 8 9 10 9 8 7 6 10 11 8 8 9 9 8 7 6 7 7 7 7 8 7 7 8 9 8 7 7 7 8 9 10 9 8 7 6 6 5 5 6 7 5 3 2 5 12 20 27 33 34 31 26 21 16 13 11 10 9 9 9 10 13 14 15 17 17 18 21 22 23 23 20 16 11 7 5 5 7 7 8 8 7 8 8 7 6 6 5 4 5
13 12 11 9 9 9 8 8 8 8 6 6 5 6 8 9 8 9 11 9 7 7 7 7 7 8 8 8 8 9 9 8 7 7 8 8 8 8 8 7 6 4 4 5 6 6 4 2 4 10 19 28 33 33 29 23 17 12 9 7 5 4 5 6 6 6 8 9 10 13 14 16 17 16 15 14 15 18 20 22 22 19 15 10 9 10 10 10 9 9 9 8 6 5 6 5 4
9 9 9 8 8 7 6 6 7 6 4 4 5 6 7 8 9 11 9 6 6 8 8 8 8 7 7 8 9 9 7 7 7 8 8 8 7 7 6 5 4 4 5 5 3 3 6 13 24 31 33 29 22 16 11 8 7 6 5 4 4 5 5 5 5 5 7 9 11 14 16 19 22 22 21 18 16 15 15 16 18 20 21 18 14 14 13 12 11 11 9 8 6 5 7 6 4
8 8 7 6 7 6 5 5 6 5 4 5 6 6 6 9 11 8 6 6 7 8 8 7 6 7 9 9 8 7 7 8 8 7 7 7 5 5 5 5 5 4 3 3 7 17 27 33 32 25 17 11 7 7 6 6 5 4 4 5 5 5 4 4 6 7 8 11 13 15 18 20 23 25 26 25 22 20 18 17 16 16 18 20 19 18 16 14 13 12 11 8 7 7 7 7 6
7 7 6 6 6 5 5 6 6 5 5 6 8 8 9 11 8 6 7 7 6 7 7 6 8 10 9 7 6 7 8 7 7 7 6 6 5 6 7 5 3 4 9 18 28 33 30 22 14 9 7 7 6 5 5 5 6 6 6 5 5 5 6 7 9 12 13 15 16 18 20 21 23 23 25 27 27 24 21 20 21 19 16 16 18 19 18 17 15 13 13 9 8 9 9 9 8
Height
5826 5826 5826 5826 5826 5826 5826 5826 5826 5826 5826 5826 5826 5826 5826 5825 5825 5825 5824 5824 5823 5823 5823 5823 5822 5822 5821 5821 5821 5820 5820 5820 5820 5819 5818 5818 5817 5816 5815 5814 5813 5812 5811 5810 5809 5808 5807 5806 5804 5803 5802 5801 5800 5799 5798 5797 5797 5796 5795 5794 5793 5793 5792 5791 5790 5790 5789 5788 5787 5786 5785 5784 5784 5784 5784 5783 5783 5783 5781 5781 5781 5782 5782 5782 5783 5783 5783 5783 5783 5783 5783 5783 5783 5783 5783 5785 5787
5826 5826 5826 5826 5826 5827 5827 5827 5826 5826 5826 5826 5826 5826 5825 5825 5825 5824 5824 5824 5823 5823 5823 5822 5822 5822 5821 5821 5821 5820 5820 5819 5819 5818 5817 5817 5816 5815 5814 5813 5812 5811 5809 5808 5807 5806 5805 5803 5802 5801 5800 5799 5798 5797 5795 5794 5793 5793 5792 5791 5790 5790 5789 5788 5787 5787 5786 5785 5784 5783 5782 5781 5780 5781 5780 5780 5779 5779 5778 5777 5776 5777 5777 5777 5777 5778 5778 5779 5779 5778 5778 5778 5778 5778 5778 5779 5780
5827 5827 5827 5827 5827 5827 5827 5827 5826 5826 5826 5826 5826 5826 5825 5825 5824 5824 5824 5823 5823 5823 5822 5822 5822 5822 5821 5821 5820 5820 5819 5818 5817 5817 5816 5815 5814 5813 5812 5811 5810 5808 5807 5806 5805 5804 5803 5802 5800 5799 5798 5796 5795 5794 5793 5791 5790 5789 5788 5787 5787 5786 5786 5785 5784 5783 5783 5782 5781 5780 5778 5777 5777 5777 5777 5776 5776 5775 5773 5773 5772 5772 5773 5773 5773 5773 5773 5773 5773 5773 5773 5773 5773 5773 5773 5774 5774
5828 5828 5828 5828 5828 5828 5827 5827 5827 5827 5826 5826 5826 5825 5825 5824 5824 5824 5823 5823 5823 5823 5822 5822 5822 5821 5821 5820 5819 5818 5818 5817 5816 5815 5814 5813 5812 5811 5810 5809 5808 5806 5805 5804 5803 5802 5801 5800 5799 5797 5796 5794 5793 5791 5790 5789 5787 5786 5785 5784 5783 5782 5782 5781 5780 5779 5779 5778 5777 5776 5775 5774 5773 5773 5773 5772 5772 5771 5769 5769 5768 5768 5768 5768 5768 5768 5768 5767 5767 5767 5768 5768 5768 5768 5768 5768 5768
5829 5829 5829 5829 5828 5828 5828 5828 5827 5827 5827 5826 5826 5825 5825 5824 5824 5824 5823 5823 5823 5822 5822 5822 5821 5820 5820 5819 5818 5817 5816 5815 5814 5813 5812 5811 5810 5809 5808 5807 5806 5804 5803 5802 5801 5800 5799 5798 5797 5795 5794 5792 5791 5789 5788 5786 5785 5784 5782 5781 5780 5779 5778 5777 5776 5775 5775 5774 5773 5772 5771 5770 5770 5769 5769 5768 5768 5767 5765 5764 5764 5764 5763 5763 5763 5762 5763 5762 5762 5761 5761 5761 5762 5763 5762 5762 5762
5830 5830 5829 5829 5829 5828 5828 5828 5827 5827 5826 5826 5825 5825 5824 5824 5823 5823 5822 5822 5822 5821 5821 5820 5820 5819 5818 5818 5817 5816 5815 5814 5813 5812 5811 5809 5808 5807 5806 5805 5803 5802 5801 5800 5798 5797 5796 5795 5794 5792 5791 5790 5788 5787 5785 5784 5783 5781 5780 5778 5777 5776 5775 5774 5773 5772 5771 5770 5769 5768 5767 5766 5766 5765 5764 5764 5764 5762 5761 5760 5759 5759 5758 5758 5757 5756 5756 5756 5755 5754 5754 5755 5755 5756 5757 5757 5756
5830 5830 5830 5829 5829 5829 5828 5827 5827 5826 5826 5825 5825 5824 5823 5823 5822 5822 5822 5821 5821 5820 5820 5820 5819 5818 5817 5817 5815 5815 5814 5812 5811 5810 5809 5808 5807 5805 5804 5802 5801 5800 5798 5797 5795 5794 5793 5791 5790 5789 5787 5786 5785 5783 5782 5780 5779 5778 5777 5775 5774 5773 5771 5770 5769 5768 5767 5766 5765 5764 5763 5762 5761 5761 5760 5760 5759 5758 5757 5755 5755 5754 5753 5752 5752 5751 5750 5749 5748 5747 5747 5747 5747 5748 5750 5750 5751
5831 5831 5830 5830 5829 5828 5828 5827 5826 5826 5825 5825 5824 5823 5823 5822 5822 5822 5821 5821 5820 5820 5819 5819 5818 5817 5816 5815 5814 5813 5812 5811 5810 5808 5807 5806 5804 5803 5802 5800 5798 5797 5795 5794 5792 5791 5789 5788 5786 5785 5783 5782 5780 5779 5778 5776 5775 5774 5772 5771 5770 5768 5767 5766 5765 5764 5763 5762 5761 5759 5758 5757 5757 5756 5755 5756 5755 5753 5753 5751 5751 5750 5749 5748 5747 5746 5745 5743 5742 5740 5740 5740 5740 5740 5741 5742 5744
5831 5831 5830 5829 5829 5828 5827 5826 5826 5825 5825 5824 5824 5823 5823 5822 5822 5822 5821 5820 5820 5819 5818 5817 5816 5815 5814 5813 5812 5811 5810 5809 5808 5806 5805 5803 5802 5800 5799 5797 5795 5794 5792 5790 5789 5787 5785 5783 5782 5780 5779 5777 5776 5775 5773 5772 5770 5769 5768 5766 5765 5764 5762 5761 5760 5759 5758 5757 5756 5755 5754 5753 5752 5752 5751 5751 5751 5749 5748 5747 5746 5746 5744 5743 5742 5741 5739 5738 5736 5734 5733 5732 5732 5732 5732 5733 5734
5831 5831 5830 5829 5828 5827 5827 5826 5826 5826 5825 5825 5824 5823 5823 5822 5822 5821 5820 5820 5819 5818 5817 5816 5815 5814 5813 5812 5811 5809 5808 5807 5805 5804 5802 5801 5799 5797 5796 5794 5792 5790 5788 5787 5785 5783 5781 5779 5777 5776 5774 5773 5771 5770 5768 5767 5765 5764 5763 5762 5760 5759 5758 5757 5756 5755 5754 5753 5752 5751 5750 5749 5748 5748 5747 5747 5746 5745 5744 5743 5742 5741 5740 5739 5737 5736 5734 5733 5732 5730 5727 5726 5724 5724 5724 5724 5725
5831 5830 5829 5829 5828 5828 5827 5827 5826 5826 5825 5825 5824 5823 5822 5822 5821 5820 5819 5818 5818 5817 5816 5815 5813 5813 5811 5810 5809 5807 5806 5804 5803 5801 5800 5798 5796 5794 5793 5791 5789 5787 5784 5783 5781 5779 5777 5775 5773 5771 5770 5768 5767 5765 5763 5762 5760 5759 5758 5757 5755 5754 5753 5752 5751 5750 5749 5748 5747 5746 5745 5745 5744 5744 5742 5742 5742 5740 5739 5738 5737 5736 5736 5734 5733 5731 5728 5727 5726 5724 5722 5720 5718 5717 5717 5716 5715
5830 5830 5829 5829 5828 5828 5827 5827 5826 5825 5825 5824 5823 5823 5822 5821 5820 5819 5818 5817 5817 5815 5814 5813 5812 5811 5809 5808 5806 5805 5803 5802 5800 5798 5797 5795 5793 5791 5789 5787 5785 5783 5780 5778 5776 5774 5773 5771 5769 5767 5765 5763 5762 5760 5758 5757 5755 5754 5753 5751 5750 5749 5748 5747 5746 5745 5744 5743 5742 5742 5741 5740 5740 5739 5738 5737 5737 5736 5734 5733 5732 5731 5731 5729 5728 5726 5723 5721 5720 5718 5717 5715 5713 5711 5709 5708 5707
5830 5829 5829 5828 5828 5827 5827 5826 5825 5825 5824 5823 5823 5822 5821 5820 5819 5818 5817 5816 5815 5814 5813 5811 5810 5809 5807 5805 5804 5802 5800 5799 5797 5795 5793 5791 5789 5787 5785 5783 5781 5779 5777 5774 5772 5770 5768 5766 5765 5763 5761 5759 5757 5755 5753 5752 5750 5749 5747 5746 5745 5744 5743 5742 5741 5740 5739 5738 5737 5737 5736 5735 5735 5734 5733 5732 5731 5730 5729 5728 5727 5726 5725 5724 5723 5721 5718 5716 5715 5713 5710 5708 5706 5705 5703 5701 5700
5830 5829 5828 5828 5827 5827 5826 5825 5825 5824 5823 5823 5822 5821 5820 5819 5818 5817 5816 5815 5813 5812 5811 5809 5808 5806 5804 5803 5801 5799 5797 5795 5793 5791 5790 5788 5785 5783 5781 5779 5777 5775 5772 5770 5768 5765 5763 5761 5760 5758 5756 5754 5752 5750 5748 5746 5745 5744 5742 5741 5740 5739 5738 5737 5736 5735 5734 5733 5733 5732 5731 5731 5730 5729 5728 5727 5726 5725 5724 5723 5722 5721 5720 5719 5717 5715 5713 5711 5709 5707 5704 5702 5700 5697 5696 5694 5692
5829 5828 5828 5827 5826 5826 5825 5824 5824 5823 5822 5822 5821 5820 5819 5818 5817 5816 5814 5813 5811 5810 5808 5807 5805 5803 5801 5799 5798 5796 5794 5792 5790 5788 5786 5784 5782 5779 5777 5775 5772 5770 5767 5765 5762 5760 5758 5756 5754 5752 5750 5748 5747 5745 5744 5742 5740 5738 5737 5736 5735 5734 5733 5732 5731 5730 5729 5729 5728 5728 5727 5726 5725 5724 5722 5721 5720 5719 5718 5717 5716 5715 5714 5713 5711 5709 5707 5705 5703 5701 5698 5696 5693 5690 5688 5687 5685
5828 5827 5827 5826 5825 5825 5824 5823 5823 5822 5822 5821 5820 5819 5818 5817 5815 5814 5812 5811 5809 5807 5806 5804 5802 5800 5798 5796 5794 5793 5790 5788 5786 5784 5782 5780 5777 5775 5772 5770 5767 5765 5762 5760 5757 5755 5752 5750 5749 5746 5744 5743 5741 5739 5738 5736 5735 5733 5732 5730 5729 5728 5727 5727 5726 5725 5725 5724 5724 5723 5722 5721 5720 5719 5717 5716 5715 5714 5713 5711 5710 5709 5708 5707 5705 5703 5701 5699 5697 5695 5692 5689 5687 5683 5681 5679 5677
5827 5826 5826 5825 5824 5824 5823 5822 5822 5821 5820 5819 5818 5817 5816 5815 5813 5811 5810 5808 5806 5804 5803 5801 5799 5796 5794 5793 5790 5788 5786 5784 5782 5780 5778 5775 5773 5770 5767 5765 5762 5760 5757 5754 5752 5749 5747 5745 5743 5741 5739 5737 5735 5733 5732 5731 5729 5728 5727 5725 5724 5723 5722 5721 5721 5720 5720 5719 5719 5718 5717 5716 5715 5713 5712 5710 5709 5708 5707 5706 5704 5703 5702 5700 5698 5697 5695 5692 5690 5688 5686 5683 5680 5676 5674 5671 5670
5826 5825 5825 5824 5823 5823 5822 5821 5821 5820 5819 5818 5816 5815 5814 5812 5811 5809 5807 5805 5803 5802 5800 5798 5795 5792 5791 5789 5787 5784 5782 5780 5778 5776 5773 5770 5768 5765 5762 5760 5757 5755 5752 5749 5747 5744 5742 5740 5737 5735 5733 5731 5730 5728 5726 5725 5724 5722 5721 5720 5719 5718 5717 5716 5715 5715 5714 5714 5713 5713 5712 5710 5709 5708 5706 5705 5703 5703 5702 5700 5699 5697 5695 5693 5691 5689 5688 5685 5682 5680 5678 5676 5673 5669 5666 5664 5662
5825 5824 5824 5823 5822 5822 5821 5820 5819 5818 5817 5816 5814 5813 5811 5810 5808 5806 5804 5803 5801 5799 5797 5795 5791 5789 5788 5786 5783 5781 5778 5776 5774 5771 5768 5765 5763 5760 5757 5755 5752 5749 5747 5745 5742 5739 5737 5734 5732 5730 5728 5726 5725 5723 5721 5720 5718 5717 5716 5714 5713 5712 5711 5711 5710 5709 5709 5708 5708 5707 5706 5704 5703 5701 5700 5699 5698 5697 5696 5695 5693 5691 5689 5687 5684 5682 5680 5678 5675 5673 5670 5667 5664 5662 5658 5656 5654
5824 5823 5823 5822 5821 5820 5820 5819 5817 5816 5815 5813 5812 5810 5809 5807 5805 5803 5801 5799 5798 5796 5794 5791 5788 5786 5784 5782 5779 5777 5775 5772 5769 5766 5763 5760 5758 5755 5752 5750 5747 5744 5742 5739 5737 5734 5732 5729 5727 5725 5723 5721 5720 5718 5716 5715 5713 5712 5710 5709 5708 5707 5706 5705 5705 5704 5704 5703 5702 5701 5700 5698 5696 5695 5694 5693 5692 5691 5690 5689 5687 5685 5683 5680 5678 5675 5673 5671 5668 5665 5663 5659 5655 5652 5650 5647 5646
5823 5822 5822 5821 5820 5819 5818 5817 5815 5814 5812 5811 5809 5808 5806 5804 5802 5800 5798 5796 5794 5793 5791 5788 5785 5782 5780 5778 5776 5773 5770 5768 5765 5762 5759 5756 5753 5750 5747 5745 5742 5739 5737 5734 5732 5729 5727 5725 5722 5720 5718 5716 5715 5713 5711 5710 5708 5707 5705 5704 5703 5702 5701 5700 5700 5699 5699 5698 5696 5695 5693 5692 5690 5689 5688 5686 5685 5684 5683 5682 5680 5678 5676 5674 5671 5669 5666 5664 5661 5659 5656 5653 5648 5644 5640 5637 5636
5822 5821 5820 5819 5818 5817 5816 5815 5813 5812 5810 5808 5807 5805 5804 5802 5800 5797 5795 5793 5791 5790 5787 5784 5782 5779 5776 5774 5771 5769 5766 5763 5760 5757 5754 5751 5749 5746 5743 5740 5737 5734 5732 5729 5727 5724 5722 5720 5718 5716 5714 5712 5710 5708 5706 5705 5704 5702 5701 5700 5698 5697 5697 5696 5695 5694 5693 5692 5690 5689 5687 5686 5684 5683 5681 5680 5678 5677 5676 5674 5673 5671 5669 5666 5664 5662 5659 5656 5654 5651 5648 5645 5641 5636 5633 5629 5626
5821 5820 5819 5818 5817 5815 5814 5812 5811 5809 5807 5806 5804 5803 5801 5799 5796 5794 5792 5790 5788 5786 5783 5781 5778 5775 5772 5770 5767 5764 5761 5759 5756 5753 5750 5747 5744 5741 5738 5735 5732 5730 5727 5724 5722 5719 5717 5715 5713 5711 5709 5708 5706 5704 5702 5701 5700 5698 5696 5695 5694 5693 5692 5691 5690 5689 5687 5686 5684 5683 5681 5680 5678 5677 5675 5674 5672 5670 5669 5667 5665 5663 5661 5659 5657 5654 5652 5649 5646 5643 5640 5637 5633 5629 5625 5621 5618
5819 5818 5817 5816 5814 5813 5812 5810 5809 5807 5805 5803 5801 5800 5798 5796 5793 5791 5789 5787 5785 5782 5779 5776 5773 5771 5768 5766 5763 5760 5757 5754 5752 5749 5745 5742 5739 5736 5733 5731 5728 5725 5722 5720 5717 5715 5713 5711 5709 5707 5705 5703 5702 5701 5699 5697 5695 5694 5692 5691 5690 5689 5687 5686 5685 5683 5682 5680 5679 5677 5675 5674 5672 5671 5669 5667 5665 5664 5662 5660 5657 5655 5654 5651 5649 5647 5644 5641 5638 5636 5632 5629 5625 5621 5616 5613 5610
5817 5816 5815 5814 5812 5811 5810 5808 5806 5804 5802 5801 5799 5797 5795 5792 5790 5788 5786 5784 5781 5779 5776 5772 5769 5767 5765 5761 5758 5756 5753 5750 5747 5744 5741 5738 5735 5731 5729 5726 5723 5720 5718 5715 5713 5711 5709 5707 5705 5702 5701 5699 5698 5696 5695 5693 5691 5690 5688 5687 5685 5684 5683 5681 5680 5678 5676 5675 5673 5671 5669 5668 5666 5664 5663 5661 5659 5657 5655 5653 5650 5648 5646 5644 5641 5639 5636 5634 5631 5628 5624 5621 5617 5613 5608 5605 5602
5815 5814 5813 5812 5810 5809 5807 5805 5804 5802 5800 5798 5796 5794 5792 5789 5786 5785 5783 5780 5778 5775 5772 5769 5766 5763 5761 5757 5754 5751 5748 5745 5743 5739 5736 5733 5730 5727 5724 5721 5719 5716 5713 5711 5708 5706 5704 5702 5701 5698 5697 5695 5694 5692 5691 5689 5687 5686 5684 5682 5681 5679 5678 5676 5675 5673 5671 5669 5667 5665 5663 5662 5660 5658 5656 5654 5652 5650 5648 5646 5643 5641 5639 5636 5634 5631 5628 5625 5623 5619 5616 5613 5609 5604 5600 5597 5594
5814 5812 5811 5809 5808 5806 5805 5803 5801 5799 5797 5795 5793 5791 5789 5786 5783 5781 5779 5777 5774 5771 5768 5765 5762 5759 5756 5753 5750 5747 5744 5741 5738 5734 5731 5728 5725 5722 5719 5717 5715 5712 5709 5707 5704 5702 5700 5698 5696 5695 5692 5691 5690 5688 5686 5685 5683 5682 5680 5678 5677 5675 5673 5671 5669 5667 5665 5664 5662 5660 5657 5655 5653 5652 5650 5647 5645 5643 5641 5639 5636 5634 5631 5629 5626 5623 5621 5617 5614 5611 5608 5605 5601 5596 5592 5589 5586
5812 5811 5809 5807 5806 5804 5802 5801 5798 5797 5794 5792 5791 5788 5786 5783 5779 5777 5776 5773 5770 5767 5764 5761 5758 5755 5752 5749 5746 5742 5739 5736 5733 5730 5727 5724 5721 5718 5715 5713 5710 5708 5705 5703 5700 5698 5696 5694 5692 5691 5689 5687 5685 5684 5682 5680 5678 5677 5675 5673 5672 5670 5668 5666 5664 5662 5660 5658 5656 5653 5651 5649 5646 5645 5643 5641 5638 5636 5634 5631 5628 5626 5623 5621 5618 5615 5613 5610 5606 5604 5600 5597 5593 5589 5584 5580 5577
5810 5809 5807 5805 5804 5801 5800 5798 5796 5793 5791 5789 5787 5785 5782 5780 5777 5773 5772 5770 5766 5763 5760 5757 5754 5751 5747 5744 5741 5738 5735 5731 5728 5725 5722 5720 5717 5714 5711 5708 5706 5704 5701 5699 5697 5694 5692 5690 5688 5687 5685 5683 5681 5679 5677 5676 5674 5672 5670 5668 5666 5665 5662 5660 5658 5656 5653 5651 5649 5647 5645 5642 5640 5637 5636 5633 5631 5628 5626 5623 5621 5618 5615 5613 5610 5607 5605 5602 5599 5596 5592 5589 5585 5581 5576 5572 5569
5808 5807 5805 5803 5801 5799 5797 5795 5793 5790 5788 5786 5783 5781 5778 5776 5774 5769 5767 5766 5762 5759 5756 5753 5750 5746 5743 5740 5736 5733 5730 5727 5724 5721 5718 5715 5712 5710 5707 5704 5702 5700 5697 5695 5693 5691 5688 5687 5685 5682 5680 5679 5677 5675 5673 5671 5669 5667 5665 5663 5661 5659 5656 5654 5652 5650 5647 5645 5643 5641 5638 5636 5633 5630 5628 5626 5623 5621 5618 5616 5613 5610 5607 5605 5602 5599 5597 5594 5591 5588 5585 5581 5577 5573 5569 5565 5561
5806 5804 5803 5800 5798 5796 5794 5792 5789 5787 5785 5782 5779 5777 5774 5771 5769 5766 5763 5761 5757 5754 5751 5748 5745 5741 5738 5735 5731 5728 5725 5722 5719 5716 5714 5711 5708 5706 5703 5700 5697 5695 5693 5691 5689 5687 5685 5683 5681 5679 5676 5674 5673 5671 5668 5666 5664 5662 5660 5658 5655 5653 5651 5648 5646 5643 5641 5639 5636 5634 5631 5629 5626 5623 5621 5618 5616 5613 5611 5608 5606 5603 5600 5597 5594 5591 5589 5585 5582 5580 5577 5573 5570 5565 5561 5557 5553
5804 5802 5800 5798 5795 5793 5791 5789 5786 5783 5781 5779 5776 5774 5771 5767 5764 5762 5759 5756 5753 5749 5746 5743 5740 5736 5733 5730 5727 5723 5720 5717 5714 5712 5710 5707 5704 5701 5699 5696 5693 5691 5689 5687 5685 5683 5681 5679 5677 5675 5672 5670 5668 5666 5663 5661 5659 5657 5655 5653 5650 5647 5645 5642 5640 5637 5635 5632 5629 5627 5624 5622 5619 5616 5614 5611 5608 5606 5603 5601 5598 5595 5592 5589 5586 5583 5580 5578 5575 5572 5568 5565 5562 5558 5553 5549 5546
5802 5800 5797 5795 5793 5790 5788 5786 5783 5780 5778 5776 5773 5770 5767 5763 5759 5757 5755 5752 5748 5745 5742 5738 5735 5732 5728 5725 5722 5719 5715 5713 5710 5708 5705 5702 5700 5697 5695 5692 5689 5687 5685 5683 5681 5679 5677 5675 5673 5671 5667 5665 5663 5661 5659 5656 5654 5651 5649 5647 5644 5641 5639 5636 5633 5631 5628 5625 5623 5620 5617 5615 5612 5609 5606 5604 5601 5598 5596 5593 5590 5587 5585 5582 5579 5576 5572 5569 5567 5564 5561 5557 5554 5550 5546 5541 5538
5799 5797 5795 5792 5790 5787 5784 5783 5780 5777 5775 5772 5769 5766 5763 5759 5754 5752 5750 5748 5744 5740 5737 5733 5730 5727 5723 5720 5717 5714 5711 5708 5706 5703 5700 5698 5695 5693 5690 5688 5686 5684 5681 5679 5677 5675 5673 5670 5668 5666 5663 5660 5658 5656 5653 5651 5648 5646 5643 5641 5638 5635 5632 5630 5627 5624 5621 5619 5616 5613 5610 5607 5605 5602 5599 5596 5593 5591 5588 5585 5582 5579 5577 5574 5571 5568 5564 5561 5558 5556 5553 5549 5546 5542 5538 5534 5530
5795 5793 5791 5789 5787 5784 5781 5779 5776 5774 5771 5768 5765 5762 5759 5755 5751 5747 5745 5743 5739 5736 5732 5728 5725 5722 5718 5716 5713 5709 5707 5704 5701 5699 5696 5693 5691 5689 5686 5684 5682 5680 5677 5675 5673 5670 5668 5665 5663 5660 5658 5655 5652 5650 5647 5645 5642 5640 5637 5635 5632 5629 5626 5623 5621 5617 5615 5612 5609 5606 5603 5600 5597 5595 5592 5588 5585 5583 5580 5577 5574 5571 5568 5566 5563 5560 5556 5553 5550 5547 5545 5541 5538 5534 5530 5526 5523
5792 5790 5788 5785 5783 5780 5777 5775 5772 5769 5767 5764 5761 5757 5755 5751 5747 5743 5740 5737 5734 5730 5726 5723 5720 5717 5714 5711 5708 5705 5702 5700 5697 5694 5691 5688 5686 5684 5682 5681 5679 5676 5673 5671 5669 5666 5663 5661 5658 5655 5652 5650 5647 5644 5641 5639 5636 5633 5631 5628 5625 5622 5620 5617 5614 5611 5607 5604 5602 5599 5596 5593 5590 5587 5584 5581 5577 5574 5571 5568 5566 5563 5560 5557 5555 5552 5548 5545 5542 5539 5537 5534 5530 5526 5522 5518 5515
5789 5787 5784 5782 5779 5777 5774 5771 5769 5765 5763 5760 5756 5753 5750 5746 5743 5739 5735 5732 5729 5725 5721 5718 5715 5712 5709 5706 5703 5700 5698 5695 5692 5690 5687 5684 5682 5680 5679 5677 5675 5672 5669 5667 5664 5661 5658 5656 5653 5650 5647 5644 5641 5638 5635 5632 5629 5626 5624 5621 5618 5615 5613 5610 5607 5604 5600 5597 5594 5591 5588 5585 5582 5579 5576 5573 5569 5566 5563 5560 5557 5555 5552 5549 5547 5544 5540 5537 5534 5531 5529 5526 5522 5519 5514 5510 5507
5786 5783 5781 5778 5775 5773 5770 5768 5765 5761 5759 5756 5752 5749 5745 5741 5738 5735 5731 5728 5724 5720 5716 5713 5710 5707 5704 5701 5698 5696 5694 5691 5688 5685 5682 5680 5678 5676 5675 5673 5670 5668 5665 5662 5660 5657 5654 5651 5648 5644 5641 5638 5635 5632 5628 5625 5622 5619 5616 5613 5610 5608 5605 5602 5599 5596 5593 5590 5586 5583 5580 5577 5574 5571 5568 5564 5561 5558 5554 5551 5548 5546 5543 5541 5538 5535 5532 5529 5526 5523 5520 5518 5515 5511 5507 5503 5499
5783 5780 5777 5774 5771 5769 5766 5764 5761 5757 5754 5751 5747 5744 5740 5736 5734 5730 5727 5723 5719 5715 5711 5708 5705 5703 5700 5697 5694 5692 5689 5686 5684 5681 5678 5676 5674 5673 5671 5669 5666 5663 5660 5658 5655 5652 5649 5645 5642 5639 5635 5632 5629 5626 5622 5618 5615 5612 5609 5606 5603 5600 5597 5594 5592 5588 5584 5582 5579 5576 5572 5568 5565 5562 5559 5556 5552 5549 5546 5543 5540 5537 5535 5532 5529 5527 5524 5520 5517 5514 5512 5510 5507 5503 5500 5496 5492
5780 5777 5773 5770 5767 5764 5761 5759 5756 5753 5749 5746 5742 5739 5735 5731 5729 5725 5721 5718 5714 5710 5706 5703 5701 5698 5695 5693 5690 5688 5685 5682 5680 5677 5675 5673 5671 5669 5667 5664 5661 5659 5656 5653 5650 5646 5643 5640 5636 5633 5630 5626 5622 5619 5616 5612 5609 5606 5603 5599 5595 5592 5589 5586 5583 5579 5575 5573 5571 5568 5564 5561 5557 5553 5551 5548 5544 5540 5537 5534 5531 5528 5526 5524 5521 5518 5515 5512 5509 5506 5504 5502 5499 5496 5492 5488 5484
5776 5774 5770 5766 5764 5760 5757 5754 5752 5748 5745 5742 5738 5735 5731 5725 5723 5720 5716 5712 5709 5704 5701 5699 5696 5694 5691 5689 5686 5683 5680 5678 5676 5674 5671 5669 5668 5666 5663 5659 5656 5653 5650 5647 5644 5640 5637 5633 5630 5627 5623 5620 5616 5613 5609 5606 5602 5598 5595 5593 5589 5585 5581 5577 5573 5570 5567 5564 5561 5558 5555 5552 5548 5545 5542 5539 5536 5532 5529 5525 5522 5520 5517 5515 5513 5510 5507 5504 5501 5498 5496 5493 5491 5488 5485 5481 5477
5772 5770 5767 5763 5760 5756 5753 5749 5746 5743 5740 5737 5733 5729 5726 5721 5716 5714 5711 5707 5703 5699 5697 5694 5692 5689 5687 5684 5681 5678 5676 5675 5674 5671 5668 5666 5664 5662 5659 5655 5651 5648 5644 5641 5637 5633 5630 5627 5623 5620 5616 5613 5609 5605 5602 5598 5595 5591 5587 5584 5581 5577 5573 5569 5565 5561 5558 5555 5553 5549 5545 5543 5540 5536 5533 5530 5527 5524 5520 5517 5513 5511 5508 5506 5504 5501 5498 5496 5493 5490 5488 5486 5483 5480 5477 5473 5470
5768 5765 5762 5759 5756 5752 5748 5745 5741 5738 5734 5732 5729 5725 5723 5719 5713 5709 5706 5701 5698 5695 5692 5690 5687 5685 5682 5680 5677 5674 5673 5672 5670 5667 5664 5662 5660 5657 5654 5651 5647 5643 5639 5634 5630 5627 5623 5620 5617 5613 5609 5605 5602 5598 5594 5590 5586 5583 5579 5576 5572 5568 5564 5561 5556 5552 5550 5547 5543 5540 5537 5534 5531 5527 5524 5521 5518 5515 5512 5508 5505 5502 5500 5497 5495 5493 5490 5487 5485 5483 5480 5478 5475 5472 5469 5466 5462
5764 5761 5758 5755 5751 5747 5744 5740 5736 5733 5730 5728 5727 5722 5719 5716 5710 5706 5701 5696 5693 5691 5688 5685 5682 5679 5677 5675 5672 5671 5670 5669 5666 5662 5659 5657 5654 5651 5648 5644 5640 5636 5632 5628 5624 5621 5617 5613 5609 5605 5601 5597 5594 5590 5586 5582 5578 5574 5570 5567 5563 5559 5555 5552 5547 5543 5541 5538 5534 5531 5528 5525 5522 5519 5515 5512 5509 5506 5503 5499 5496 5493 5491 5488 5486 5484 5481 5478 5476 5474 5472 5470 5467 5464 5461 5458 5454
5760 5757 5754 5750 5747 5743 5739 5735 5732 5728 5725 5723 5722 5719 5715 5712 5705 5699 5696 5692 5689 5687 5684 5680 5677 5674 5672 5670 5668 5667 5665 5663 5660 5657 5654 5651 5648 5645 5641 5637 5633 5629 5624 5621 5618 5614 5610 5606 5602 5598 5593 5589 5585 5582 5578 5574 5570 5565 5561 5557 5554 5550 5546 5542 5539 5534 5531 5528 5525 5521 5518 5515 5512 5509 5506 5502 5499 5496 5493 5490 5487 5485 5482 5479 5477 5474 5472 5470 5468 5466 5464 5461 5459 5456 5453 5450 5447
5756 5753 5749 5745 5742 5738 5734 5730 5727 5724 5721 5719 5718 5715 5711 5709 5702 5693 5689 5687 5684 5682 5678 5675 5673 5670 5668 5666 5663 5660 5659 5657 5654 5651 5648 5645 5641 5638 5634 5630 5626 5621 5617 5613 5609 5605 5601 5597 5594 5590 5585 5581 5577 5573 5569 5565 5560 5556 5552 5548 5544 5540 5536 5533 5529 5526 5521 5517 5515 5511 5508 5504 5501 5499 5496 5493 5489 5486 5483 5481 5478 5476 5473 5470 5467 5465 5463 5461 5459 5457 5455 5453 5450 5447 5445 5442 5439
5751 5748 5744 5741 5737 5734 5730 5726 5723 5719 5716 5714 5714 5711 5707 5704 5699 5690 5684 5683 5682 5678 5673 5670 5669 5667 5664 5661 5658 5655 5652 5650 5647 5645 5642 5638 5635 5631 5627 5623 5618 5614 5610 5606 5601 5597 5593 5589 5586 5582 5578 5573 5569 5565 5561 5556 5551 5547 5543 5539 5534 5530 5526 5522 5519 5516 5512 5507 5504 5501 5497 5494 5491 5488 5485 5482 5479 5476 5473 5470 5468 5466 5463 5461 5458 5455 5453 5451 5450 5448 5446 5444 5442 5439 5436 5433 5430
5747 5743 5739 5735 5732 5728 5723 5720 5717 5713 5709 5708 5709 5707 5704 5700 5695 5688 5682 5680 5680 5676 5671 5668 5665 5663 5661 5658 5655 5651 5647 5644 5640 5637 5635 5632 5628 5624 5620 5615 5611 5607 5603 5599 5595 5591 5587 5582 5578 5575 5571 5566 5561 5557 5552 5548 5543 5538 5534 5530 5525 5521 5516 5512 5508 5505 5501 5497 5494 5491 5487 5484 5480 5478 5475 5472 5469 5465 5462 5460 5457 5455 5453 5452 5449 5446 5444 5442 5440 5439 5437 5435 5433 5430 5428 5425 5423
5743 5739 5734 5730 5726 5722 5717 5714 5711 5708 5704 5704 5705 5703 5699 5696 5691 5685 5680 5677 5676 5672 5669 5666 5662 5659 5656 5654 5651 5647 5643 5639 5635 5631 5628 5624 5620 5616 5612 5608 5604 5600 5596 5592 5588 5583 5579 5575 5570 5566 5562 5558 5553 5548 5543 5539 5534 5529 5524 5519 5515 5511 5506 5502 5498 5494 5490 5485 5482 5479 5476 5473 5470 5467 5464 5461 5458 5455 5452 5449 5447 5445 5443 5441 5439 5437 5434 5432 5431 5430 5428 5427 5424 5422 5419 5417 5415
5739 5735 5730 5725 5721 5717 5713 5710 5708 5704 5699 5698 5700 5698 5695 5691 5685 5680 5677 5673 5670 5667 5664 5661 5658 5654 5650 5648 5645 5641 5637 5633 5628 5625 5621 5617 5612 5608 5605 5600 5596 5592 5588 5584 5579 5574 5570 5566 5562 5557 5553 5548 5543 5538 5534 5529 5524 5519 5514 5509 5504 5500 5496 5491 5487 5483 5479 5474 5470 5467 5464 5462 5459 5456 5453 5449 5446 5443 5440 5438 5435 5434 5432 5430 5429 5427 5425 5423 5421 5420 5419 5418 5416 5413 5411 5409 5406
5734 5730 5725 5722 5718 5713 5709 5706 5703 5700 5695 5694 5696 5695 5692 5688 5681 5675 5672 5669 5666 5662 5659 5656 5653 5649 5645 5642 5638 5634 5631 5626 5622 5618 5614 5610 5605 5601 5597 5593 5588 5584 5580 5575 5570 5566 5562 5557 5553 5548 5543 5539 5534 5528 5523 5518 5513 5509 5504 5499 5494 5489 5485 5480 5476 5471 5467 5463 5459 5454 5451 5449 5446 5443 5440 5437 5434 5431 5428 5426 5423 5422 5421 5419 5418 5417 5415 5413 5412 5411 5410 5409 5407 5405 5403 5401 5398
5729 5726 5721 5717 5714 5710 5706 5702 5700 5697 5691 5689 5692 5692 5690 5685 5678 5672 5669 5665 5661 5657 5654 5653 5648 5644 5640 5636 5633 5629 5625 5620 5616 5612 5608 5603 5599 5595 5591 5586 5581 5577 5571 5567 5562 5558 5553 5548 5544 5539 5533 5528 5524 5519 5513 5507 5502 5498 5493 5488 5483 5478 5474 5469 5464 5459 5454 5450 5447 5443 5438 5435 5432 5429 5426 5424 5421 5419 5415 5413 5411 5410 5409 5408 5407 5406 5405 5403 5401 5401 5400 5400 5399 5396 5394 5393 5390
5723 5720 5717 5713 5709 5706 5702 5698 5696 5692 5687 5685 5685 5686 5687 5682 5674 5668 5664 5661 5657 5653 5651 5650 5645 5640 5636 5632 5628 5624 5619 5615 5610 5606 5601 5596 5592 5588 5584 5579 5574 5569 5564 5559 5554 5549 5544 5539 5534 5529 5524 5518 5513 5509 5504 5498 5492 5487 5482 5476 5471 5467 5462 5459 5455 5450 5444 5439 5435 5431 5427 5423 5419 5415 5412 5409 5407 5405 5402 5400 5398 5397 5397 5396 5395 5394 5394 5393 5391 5391 5390 5390 5389 5388 5386 5384 5382
5719 5716 5712 5708 5704 5702 5698 5695 5692 5687 5682 5680 5678 5677 5680 5679 5671 5664 5659 5656 5653 5650 5649 5647 5642 5638 5633 5629 5625 5620 5615 5610 5605 5600 5595 5590 5585 5581 5577 5572 5566 5561 5556 5551 5545 5540 5535 5529 5524 5519 5514 5509 5502 5497 5493 5487 5482 5478 5473 5467 5462 5457 5452 5448 5444 5440 5436 5431 5424 5418 5414 5411 5407 5403 5399 5395 5393 5390 5387 5385 5384 5383 5383 5383 5383 5382 5382 5382 5381 5380 5380 5380 5379 5378 5377 5376 5373
5716 5712 5709 5705 5701 5697 5693 5690 5688 5683 5677 5674 5671 5668 5670 5672 5667 5660 5654 5650 5648 5646 5643 5640 5636 5632 5627 5623 5619 5614 5609 5604 5599 5594 5589 5583 5578 5573 5569 5564 5558 5552 5547 5541 5535 5530 5525 5519 5514 5508 5502 5497 5492 5486 5482 5477 5472 5468 5464 5460 5454 5448 5443 5438 5433 5428 5424 5420 5414 5408 5402 5398 5394 5390 5386 5382 5379 5376 5373 5371 5369 5368 5368 5369 5370 5370 5370 5370 5370 5370 5370 5369 5369 5368 5368 5367 5365
5713 5709 5706 5702 5699 5695 5690 5687 5684 5679 5673 5669 5665 5661 5660 5661 5658 5652 5647 5643 5641 5639 5636 5631 5627 5623 5618 5613 5609 5604 5599 5594 5589 5584 5579 5573 5568 5563 5558 5553 5547 5542 5536 5530 5525 5519 5514 5508 5503 5497 5491 5486 5481 5476 5472 5468 5463 5458 5453 5449 5445 5439 5434 5429 5424 5418 5412 5406 5401 5396 5390 5385 5381 5377 5372 5369 5365 5362 5359 5357 5355 5354 5354 5354 5355 5356 5357 5357 5358 5359 5359 5359 5359 5358 5358 5358 5357
5709 5705 5702 5699 5696 5692 5687 5684 5682 5678 5672 5668 5662 5656 5656 5656 5651 5646 5641 5636 5634 5632 5628 5623 5619 5615 5609 5604 5599 5595 5590 5585 5580 5575 5570 5564 5558 5553 5548 5543 5538 5532 5527 5521 5515 5509 5504 5498 5493 5488 5483 5477 5472 5467 5463 5458 5453 5448 5442 5437 5432 5427 5421 5416 5411 5406 5401 5394 5388 5383 5377 5372 5368 5364 5359 5355 5352 5348 5346 5344 5342 5341 5340 5340 5341 5343 5344 5344 5345 5347 5348 5348 5348 5348 5348 5348 5347
5704 5701 5697 5694 5692 5688 5682 5677 5675 5672 5668 5666 5660 5653 5653 5653 5647 5642 5637 5631 5628 5626 5622 5617 5613 5608 5603 5598 5592 5587 5582 5577 5572 5567 5562 5556 5550 5545 5539 5534 5529 5523 5518 5512 5506 5500 5494 5489 5485 5480 5475 5469 5464 5458 5453 5448 5442 5437 5430 5424 5419 5413 5408 5403 5398 5392 5387 5382 5376 5370 5364 5359 5355 5350 5346 5343 5339 5335 5332 5331 5329 5328 5327 5327 5328 5329 5330 5331 5333 5335 5336 5337 5337 5337 5338 5338 5338